Home > Weather > Oran > Past weeks

Flag for Algeria Past Weather in Oran, Algeria — Yesterday and Last 2 Weeks

Now
84 °F

Clear.


Feels Like: 82 °F
Forecast: 73 / 86 °F
Wind: 13 mph from Northeast

Location: Oran / Es Senia

Current Time: Jul 25, 2016 at 9:07:57 PM

Latest Report: Jul 25, 2016 at 8:30 PM


Visibility: 10 mi

Pressure: 30.01 "Hg

Humidity: 33%

Dew Point: 52 °F

Location of OranLocation

Past Weather in Oran — Graph

°F

Oran Temperature Yesterday

Maximum temperature yesterday: 86 °F (at 5:30 PM)
Minimum temperature yesterday: 68 °F (at 5:00 AM)
Average temperature yesterday: 77 °F

High & Low Weather Summary for the Past Weeks

 TemperatureHumidityPressure
High99 °F (Jul 22, 1:30 PM)100% (Jul 11, 1:00 AM)30.09 "Hg (Jul 11, 1:00 AM)
Low63 °F (Jul 17, 4:00 AM)9% (Jul 22, 3:30 PM)29.86 "Hg (Jul 11, 5:00 PM)
Average77 °F67%30.00 "Hg
* Reported Jul 10 7:00 PM — Jul 25 7:30 PM, Oran, Weather by CustomWeather, © 2016

Note: Actual official high and low records may vary slightly from our data, if they occured in-between our weather recording intervals... More about our weather records

Advertising

Oran Weather History for the Previous 24 Hours

Scroll right to see more
 ConditionsComfort  
Time TempWeatherWind HumidityBarometerVisibility
7:30 PM
Mon, Jul 25
88 °FSunny.16 mph29%30.01 "Hg10 mi
7:00 PM88 °FSunny.15 mph27%30.01 "Hg10 mi
6:30 PM91 °FSunny.14 mph26%30.01 "Hg10 mi
6:00 PM91 °FSunny.16 mph36%30.01 "Hg10 mi
5:30 PM91 °FSunny.14 mph30%30.01 "Hg10 mi
5:00 PM91 °FSunny.9 mph36%30.01 "Hg10 mi
4:30 PM91 °FSunny.12 mph36%30.01 "Hg10 mi
4:00 PM90 °FSunny.12 mph38%30.01 "Hg10 mi
3:30 PM91 °FSunny.10 mph36%30.01 "Hg10 mi
3:00 PM90 °FSunny.12 mph41%30.01 "Hg10 mi
2:30 PM90 °FSunny.14 mph38%30.04 "Hg10 mi
2:00 PM88 °FSunny.14 mph43%30.04 "Hg10 mi
1:30 PM88 °FSunny.12 mph43%30.04 "Hg10 mi
1:00 PM88 °FSunny.12 mph43%30.04 "Hg10 mi
12:30 PM88 °FSunny.12 mph43%30.04 "Hg10 mi
12:00 PM90 °FSunny.9 mph41%30.04 "Hg10 mi
11:30 AM90 °FSunny.9 mph27%30.07 "Hg10 mi
11:00 AM90 °FSunny.7 mph29%30.07 "Hg10 mi
10:30 AM88 °FSunny.7 mph38%30.07 "Hg10 mi
10:00 AM84 °FSunny.5 mph45%30.04 "Hg10 mi
9:30 AM81 °FSunny.7 mph54%30.04 "Hg10 mi
9:00 AM79 °FSunny.2 mph61%30.07 "Hg10 mi
8:30 AM77 °FSunny.1 mph65%30.07 "Hg10 mi
8:00 AM73 °FSunny.2 mph74%30.07 "Hg10 mi
7:30 AM72 °FSunny.2 mph73%30.07 "Hg10 mi
7:00 AM68 °FSunny.2 mph78%30.04 "Hg10 mi
6:30 AM66 °FSunny.No wind83%30.04 "Hg10 mi
6:00 AM66 °FSunny.5 mph83%30.04 "Hg10 mi
5:30 AM66 °FClear.5 mph83%30.04 "Hg10 mi
5:00 AM68 °FClear.2 mph88%30.01 "Hg10 mi
4:30 AM70 °FClear.2 mph88%30.01 "Hg10 mi
4:00 AM70 °FClear.2 mph88%30.01 "Hg10 mi
3:30 AM72 °FClear.2 mph83%30.01 "Hg10 mi
3:00 AM72 °FClear.5 mph83%30.01 "Hg10 mi
2:30 AM72 °FClear.5 mph83%30.01 "Hg10 mi
2:00 AM72 °FClear.7 mph83%30.01 "Hg10 mi
1:30 AM72 °FClear.5 mph73%30.01 "Hg10 mi
1:00 AM72 °FClear.2 mph73%30.01 "Hg10 mi
12:30 AM72 °FClear.2 mph73%30.01 "Hg10 mi
12:00 AM72 °FClear.No wind73%30.01 "Hg10 mi
11:30 PM
Sun, Jul 24
73 °FClear.2 mph69%30.01 "Hg10 mi
11:00 PM73 °FClear.5 mph69%30.01 "Hg10 mi
10:30 PM75 °FClear.9 mph65%30.01 "Hg10 mi
10:00 PM75 °FClear.9 mph65%30.01 "Hg10 mi
9:30 PM77 °FClear.12 mph57%30.01 "Hg10 mi
9:00 PM77 °FClear.12 mph54%30.01 "Hg10 mi
Weather by CustomWeather, © 2016

See weather overviewHow to use our weather pages